Weather History for Jacksonville, FL

Change the Weather History Date:

Wednesday, May 14, 2014

  Actual Average Record
Temperature  
Mean Temperature 76 °F 74 °F  
Max Temperature 86 °F 85 °F 99 °F (1967)
Min Temperature 66 °F 62 °F 47 °F (2013)
Degree Days  
Heating Degree Days 0 0  
Month to date heating degree days 5 3  
Since 1 July heating degree days 1308 1347  
Cooling Degree Days 11 9  
Month to date cooling degree days 124 103  
Year to date cooling degree days 323 299  
Growing Degree Days 26 (Base 50)    
Moisture  
Dew Point 71 °F    
Average Humidity 83    
Maximum Humidity 100    
Minimum Humidity 65    
Precipitation  
Precipitation T in 0.07 in 2.02 in (1918)
Month to date precipitation 3.86 0.93  
Year to date precipitation 24.21 14.01  
Snow  
Snow 0.00 in 0.00 in 0.00 in (2002)
Month to date snowfall 0.0 0.0  
Since 1 July snowfall 0.0 T  
Snow Depth 0.00 in    
Sea Level Pressure  
Sea Level Pressure 30.06 in    
Wind  
Wind Speed 13 mph (ESE)    
Max Wind Speed 25 mph    
Max Gust Speed 32 mph    
Visibility 9 miles    
Events      
T = Trace of Precipitation, MM = Missing Value Source: NWS Daily Summary

Daily Weather History Graph

Daily Weather History Graph

Search for Another Location

Airport:

Trip Planner

Search our weather history database for the weather conditions in past years. The results will help you decide how hot, cold, wet, or windy it might be!

Date:

Astronomy

May. 14, 2014 Rise Set
Actual Time 6:33 AM EDT 8:13 PM EDT
Civil Twilight 6:06 AM EDT 8:39 PM EDT
Nautical Twilight 5:35 AM EDT 9:11 PM EDT
Astronomical Twilight 5:02 AM EDT 9:44 PM EDT
Moon 8:19 PM EDT (5/14) 6:27 AM EDT (5/14)
Length of Visible Light 14h 33m
Length of Day
13h 40m
Full, 100% of the Moon is Illuminated
May 14
Full
May 14
Full
May 21
Last Quarter
May 28
New
Jun 5
First Quarter

Hourly Weather History & Observations

Time (EDT) Temp. Heat Index Dew Point Humidity Pressure Visibility Wind Dir Wind Speed Gust Speed Precip Events Conditions
12:56 AM 69.1 °F - 68.0 °F 96% 30.12 in 8.0 mi NE 3.5 mph - N/A   Clear
1:56 AM 69.1 °F - 68.0 °F 96% 30.11 in 8.0 mi East 4.6 mph - N/A   Clear
2:56 AM 68.0 °F - 66.9 °F 96% 30.10 in 9.0 mi Calm Calm - N/A   Clear
3:56 AM 66.9 °F - 66.0 °F 97% 30.08 in 9.0 mi ENE 4.6 mph - N/A   Clear
4:56 AM 68.0 °F - 68.0 °F 100% 30.08 in 9.0 mi ENE 5.8 mph - N/A   Clear
5:56 AM 68.0 °F - 68.0 °F 100% 30.08 in 8.0 mi East 5.8 mph - N/A   Partly Cloudy
6:56 AM 70.0 °F - 69.1 °F 97% 30.09 in 8.0 mi NE 3.5 mph - N/A   Mostly Cloudy
7:56 AM 73.0 °F - 72.0 °F 96% 30.09 in 8.0 mi ENE 5.8 mph - N/A   Scattered Clouds
8:56 AM 78.1 °F - 73.9 °F 87% 30.10 in 10.0 mi ESE 13.8 mph - N/A   Mostly Cloudy
9:08 AM 78.1 °F - 73.0 °F 84% 30.10 in 10.0 mi ESE 11.5 mph - N/A   Mostly Cloudy
9:56 AM 80.1 °F 84.2 °F 73.0 °F 79% 30.10 in 10.0 mi SE 13.8 mph - 0.00 in   Mostly Cloudy
10:20 AM 81.0 °F 85.8 °F 73.0 °F 77% 30.10 in 10.0 mi SE 13.8 mph - N/A   Mostly Cloudy
10:56 AM 82.9 °F 88.0 °F 72.0 °F 69% 30.10 in 10.0 mi SE 17.3 mph - N/A   Mostly Cloudy
11:56 AM 84.9 °F 90.1 °F 71.1 °F 63% 30.09 in 10.0 mi SE 13.8 mph - N/A   Scattered Clouds
12:56 PM 84.9 °F 90.1 °F 71.1 °F 63% 30.07 in 10.0 mi SE 17.3 mph 26.5 mph N/A   Scattered Clouds
1:56 PM 84.9 °F 90.7 °F 72.0 °F 65% 30.05 in 10.0 mi SE 19.6 mph 29.9 mph N/A   Mostly Cloudy
2:56 PM 81.0 °F 85.2 °F 72.0 °F 74% 30.05 in 10.0 mi SE 18.4 mph 25.3 mph N/A   Mostly Cloudy
3:56 PM 80.1 °F 84.2 °F 73.0 °F 79% 30.02 in 10.0 mi ESE 15.0 mph 23.0 mph 0.00 in   Mostly Cloudy
4:56 PM 80.1 °F 83.8 °F 72.0 °F 76% 30.01 in 10.0 mi SE 19.6 mph 29.9 mph N/A   Overcast
5:56 PM 80.1 °F 83.8 °F 72.0 °F 76% 29.99 in 10.0 mi SE 17.3 mph 27.6 mph N/A   Mostly Cloudy
6:56 PM 79.0 °F - 72.0 °F 79% 29.98 in 10.0 mi ESE 19.6 mph 25.3 mph N/A   Mostly Cloudy
7:13 PM 79.0 °F - 72.0 °F 79% 29.98 in 10.0 mi ESE 15.0 mph - N/A   Overcast
7:56 PM 78.1 °F - 73.0 °F 84% 30.01 in 10.0 mi SE 20.7 mph 25.3 mph N/A   Overcast
8:56 PM 78.1 °F - 73.0 °F 84% 30.03 in 10.0 mi SE 13.8 mph - N/A   Overcast
9:56 PM 78.1 °F - 73.0 °F 84% 30.02 in 10.0 mi SE 13.8 mph 24.2 mph N/A   Overcast
10:56 PM 78.1 °F - 73.0 °F 84% 30.02 in 10.0 mi SSE 15.0 mph 21.9 mph N/A   Overcast
11:56 PM 78.1 °F - 73.0 °F 84% 30.02 in 10.0 mi SE 13.8 mph - N/A   Overcast